Overview Statistics Trail Chart Weather Telemetry Raw packets
 

This is the latest recevied weather packets stored in our database for station/object EA7URS-13. If no packets are shown the sender has not sent any weather packets the latest 10 day(s).

<< 32 33 34 35 36 37 38 >>
Time Temp. Humidity Pressure Rain* Wind** Luminosity Snow
1788438041 38.89° C 24% 1011.4 hPa 0 mm - 741 W/m² -
1788437740 38.89° C 24% 1011.4 hPa 0 mm - 741 W/m² -
1788437439 39.44° C 26% 1011.7 hPa 0 mm - 166 W/m² -
1788437138 39.44° C 26% 1011.7 hPa 0 mm - 166 W/m² -
1788436836 38.89° C 29% 1011.9 hPa 0 mm - 686 W/m² -
1788436535 38.89° C 29% 1011.9 hPa 0 mm - 686 W/m² -
1788436234 37.22° C 31% 1012 hPa 0 mm - 565 W/m² -
1788435931 37.22° C 31% 1012 hPa 0 mm - 565 W/m² -
1788435630 37.78° C 30% 1012.4 hPa 0 mm - 176 W/m² -
1788435328 37.78° C 30% 1012.4 hPa 0 mm - 176 W/m² -
1788435027 36.67° C 32% 1012.1 hPa 0 mm - 694 W/m² -
1788434725 36.67° C 32% 1012.1 hPa 0 mm - 694 W/m² -
1788434424 36.11° C 33% 1012.4 hPa 0 mm - 320 W/m² -
1788434123 36.11° C 33% 1012.4 hPa 0 mm - 320 W/m² -
1788433822 35.56° C 35% 1012.1 hPa 0 mm - 161 W/m² -
1788433520 35.56° C 35% 1012.1 hPa 0 mm - 161 W/m² -
1788433219 35.56° C 34% 1012.3 hPa 0 mm - 332 W/m² -
1788432918 35.56° C 34% 1012.3 hPa 0 mm - 332 W/m² -
1788432617 35.56° C 35% 1012.6 hPa 0 mm - 466 W/m² -
1788432315 35.56° C 35% 1012.6 hPa 0 mm - 466 W/m² -
1788432013 35° C 36% 1012.6 hPa 0 mm - 191 W/m² -
1788431712 35° C 36% 1012.6 hPa 0 mm - 191 W/m² -
1788431411 34.44° C 36% 1012.7 hPa 0 mm - 402 W/m² -
1788431110 34.44° C 36% 1012.7 hPa 0 mm - 402 W/m² -
1788430809 34.44° C 38% 1012.6 hPa 0 mm - 574 W/m² -

* Rain latest hour (hover to see other rain measurements)
** Current wind speed in m/s (hover to see current wind gust speed)